Weather History for KGTB - October, 2013

Change the Weather History Date:

Monday, October 28, 2013

  Actual Average Record
Temperature  
Mean Temperature 37 °F -  
Max Temperature 46 °F 49 °F 72 °F (2014)
Min Temperature 24 °F 33 °F 23 °F (1999)
Degree Days  
Heating Degree Days 28    
Moisture  
Dew Point 32 °F    
Average Humidity 71    
Maximum Humidity 95    
Minimum Humidity 39    
Precipitation  
Precipitation 0.00 in - - ()
Sea Level Pressure  
Sea Level Pressure 30.14 in    
Wind  
Wind Speed 9 mph (NW)    
Max Wind Speed 18 mph    
Max Gust Speed 26 mph    
Visibility 10 miles    
Events Rain    
Averages and records for this station are not official NWS values.
T = Trace of Precipitation, MM = Missing Value Source: NWS Daily Summary

Daily Weather History Graph

Daily Weather History Graph

Search for Another Location

Airport or City:

Trip Planner

Search our weather history database for the weather conditions in past years. The results will help you decide how hot, cold, wet, or windy it might be!

Date:

Astronomy

Oct. 28, 2013 Rise Set
Actual Time 7:34 AM EDT 5:58 PM EDT
Civil Twilight 7:04 AM EDT 6:27 PM EDT
Nautical Twilight 6:30 AM EDT 7:01 PM EDT
Astronomical Twilight 5:57 AM EDT 7:35 PM EDT
Moon 1:12 AM EDT (10/28) 2:50 PM EDT (10/28)
Length of Visible Light 11h 23m
Length of Day
10h 23m
Waning Crescent, 34% of the Moon is Illuminated
Oct 28
Waning Crescent
Nov 3
New
Nov 10
First Quarter
Nov 17
Full
Nov 25
Last Quarter

Hourly Weather History & Observations

Time (EDT) Temp. Windchill Dew Point Humidity Pressure Visibility Wind Dir Wind Speed Gust Speed Precip Events Conditions
12:58 AM 40.5 °F 36.5 °F 37.8 °F 90% 30.03 in 10.0 mi South 5.8 mph - N/A   Overcast
1:58 AM 40.1 °F 38.0 °F 38.8 °F 95% 30.02 in 10.0 mi South 3.5 mph - N/A   Overcast
2:58 AM 40.3 °F 35.5 °F 38.1 °F 92% 30.01 in 10.0 mi South 6.9 mph - N/A   Partly Cloudy
3:44 AM 41.0 °F 35.8 °F 37.4 °F 87% 29.98 in 10.0 mi SSW 8.1 mph - N/A   Light Drizzle
3:56 AM 41.0 °F 36.4 °F 37.4 °F 87% 29.98 in 10.0 mi SSW 6.9 mph - N/A Rain Light Rain
4:17 AM 41.0 °F 35.8 °F 37.4 °F 87% 29.98 in 10.0 mi SSW 8.1 mph - N/A   Mostly Cloudy
4:19 AM 41.0 °F 35.2 °F 37.4 °F 87% 29.97 in 10.0 mi SSW 9.2 mph - N/A   Light Drizzle
4:52 AM 41.0 °F 34.3 °F 37.4 °F 87% 29.97 in 10.0 mi SSW 11.5 mph - N/A   Overcast
4:58 AM 41.0 °F 34.7 °F 37.8 °F 88% 29.99 in 10.0 mi SSW 10.4 mph - 0.00 in   Overcast
5:34 AM 42.8 °F 37.0 °F 35.6 °F 76% 29.98 in 10.0 mi SW 10.4 mph - N/A Rain Light Rain
5:49 AM 42.8 °F 35.8 °F 37.4 °F 81% 29.98 in 10.0 mi SSW 13.8 mph 19.6 mph N/A   Overcast
5:58 AM 42.4 °F 37.0 °F 36.1 °F 78% 30.00 in 10.0 mi SW 9.2 mph 24.2 mph 0.00 in   Overcast
6:53 AM 44.6 °F 40.7 °F 37.4 °F 76% 29.98 in 10.0 mi WSW 6.9 mph 23.0 mph N/A   Overcast
6:58 AM 44.4 °F 39.5 °F 37.4 °F 76% 30.00 in 10.0 mi WSW 9.2 mph 16.1 mph N/A   Overcast
7:08 AM 44.6 °F 38.8 °F 37.4 °F 76% 29.98 in 10.0 mi SW 11.5 mph 17.3 mph N/A   Overcast
7:58 AM 45.9 °F 40.0 °F 39.0 °F 77% 30.03 in 10.0 mi West 12.7 mph 20.7 mph N/A   Overcast
8:08 AM 46.4 °F 40.7 °F 39.2 °F 76% 30.02 in 10.0 mi WNW 12.7 mph 21.9 mph N/A   Overcast
8:28 AM 46.4 °F 41.5 °F 39.2 °F 76% 30.04 in 10.0 mi WNW 10.4 mph 20.7 mph N/A   Overcast
8:33 AM 46.4 °F 41.1 °F 37.4 °F 71% 30.05 in 10.0 mi West 11.5 mph 20.7 mph N/A   Overcast
8:43 AM 44.6 °F 38.4 °F 37.4 °F 76% 30.06 in 10.0 mi WNW 12.7 mph 20.7 mph N/A   Overcast
8:58 AM 45.1 °F 40.8 °F 37.2 °F 74% 30.09 in 10.0 mi WNW 8.1 mph 21.9 mph N/A   Overcast
9:18 AM 44.6 °F 40.2 °F 35.6 °F 71% 30.09 in 10.0 mi NW 8.1 mph - N/A   Mostly Cloudy
9:48 AM 44.6 °F 39.2 °F 35.6 °F 71% 30.11 in 10.0 mi NW 10.4 mph 24.2 mph N/A   Scattered Clouds
9:53 AM 44.6 °F 39.2 °F 35.6 °F 71% 30.11 in 10.0 mi NNW 10.4 mph 24.2 mph N/A   Mostly Cloudy
9:58 AM 45.0 °F 40.1 °F 35.1 °F 68% 30.14 in 10.0 mi NW 9.2 mph 18.4 mph N/A   Mostly Cloudy
10:23 AM 46.4 °F 40.4 °F 33.8 °F 62% 30.14 in 10.0 mi NNW 13.8 mph 25.3 mph N/A   Mostly Cloudy
10:53 AM 42.8 °F 35.1 °F 33.8 °F 70% 30.16 in 10.0 mi North 16.1 mph 23.0 mph N/A   Overcast
10:58 AM 42.8 °F 36.2 °F 33.4 °F 70% 30.18 in 10.0 mi North 12.7 mph 23.0 mph N/A   Overcast
11:03 AM 42.8 °F 36.2 °F 32.0 °F 66% 30.17 in 10.0 mi North 12.7 mph 23.0 mph N/A   Mostly Cloudy
11:13 AM 44.6 °F 37.8 °F 32.0 °F 61% 30.17 in 10.0 mi North 15.0 mph 19.6 mph N/A   Mostly Cloudy
11:18 AM 44.6 °F 38.4 °F 32.0 °F 61% 30.17 in 10.0 mi NNW 12.7 mph - N/A   Mostly Cloudy
11:58 AM 43.7 °F 37.7 °F 29.3 °F 57% 30.22 in 10.0 mi North 11.5 mph 20.7 mph N/A   Mostly Cloudy
12:58 PM 41.5 °F 32.9 °F 28.8 °F 60% 30.25 in 10.0 mi North 18.4 mph 26.5 mph N/A   Mostly Cloudy
1:58 PM 41.5 °F 33.8 °F 22.5 °F 47% 30.27 in 10.0 mi North 15.0 mph - N/A   Partly Cloudy
2:58 PM 42.1 °F 34.5 °F 21.7 °F 44% 30.29 in 10.0 mi NNW 15.0 mph 18.4 mph N/A   Partly Cloudy
3:02 PM 42.8 °F 36.2 °F 19.4 °F 39% 30.26 in 10.0 mi NNE 12.7 mph - N/A   Partly Cloudy
3:58 PM 42.3 °F 35.9 °F 20.5 °F 42% 30.30 in 10.0 mi North 11.5 mph - N/A   Clear
4:58 PM 41.2 °F 35.5 °F 19.9 °F 43% 30.33 in 10.0 mi NNE 9.2 mph - N/A   Clear
5:58 PM 37.6 °F 33.1 °F 18.9 °F 47% 30.34 in 10.0 mi North 5.8 mph - N/A   Clear
6:58 PM 34.5 °F 30.4 °F 19.0 °F 53% 30.36 in 10.0 mi NNE 4.6 mph - N/A   Clear
7:58 PM 31.3 °F 26.6 °F 19.4 °F 61% 30.37 in 10.0 mi North 4.6 mph - N/A   Clear
8:58 PM 29.8 °F 23.0 °F 21.9 °F 72% 30.38 in 10.0 mi NNE 6.9 mph - N/A   Clear
9:58 PM 28.0 °F 20.8 °F 21.9 °F 78% 30.40 in 10.0 mi NNE 6.9 mph - N/A   Clear
10:58 PM 28.2 °F - 21.7 °F 77% 30.42 in 10.0 mi NNE 2.3 mph - N/A   Clear
11:58 PM 24.8 °F - 20.7 °F 84% 30.42 in 10.0 mi Calm Calm - N/A   Clear